Theta_e
352 352 354 354 354 355 356 356 360 363 364 359 360 367 366 366 363 366 368 365 365 362 361 360 356 355 358 360 359 359 357 359 358 355 355 353 348 348 349 346 347 348 349 350 350 351 353 354 354 350 344 345 349 351 349 346 345 344 344 345 347 348 344 339 336 340 344 346 344 343 343 343 344 345 346 348 348 348 349 349 350 350 350 350 351 350 349 349 349 349 349 349 349 349 349 348 347
352 353 354 354 354 357 359 359 362 360 359 356 360 370 365 365 364 367 369 366 366 359 357 356 357 358 356 358 357 358 357 355 354 353 353 350 350 350 349 346 346 348 349 349 349 351 353 354 354 351 344 343 347 347 345 344 345 345 345 345 345 342 338 336 339 345 346 344 343 343 343 344 346 348 349 349 349 349 349 348 349 349 350 350 350 350 349 349 349 349 349 349 349 348 349 348 348
353 355 354 355 356 357 361 361 360 356 355 353 359 374 367 368 369 364 363 362 360 355 356 356 358 358 354 359 358 360 359 351 349 350 351 350 351 351 349 346 346 349 349 348 349 350 352 354 355 352 344 340 343 344 344 345 345 345 344 342 341 339 337 339 342 346 345 343 343 343 345 346 348 349 350 349 349 349 349 348 347 347 349 349 350 351 350 348 348 350 350 350 349 348 349 349 348
354 355 354 356 359 360 365 364 365 359 353 352 355 369 370 369 367 359 359 359 355 354 357 357 359 355 357 365 358 360 358 350 349 349 351 351 350 350 349 348 348 349 348 348 348 349 351 353 355 353 347 341 342 345 347 347 345 344 343 342 340 339 340 341 343 343 342 342 344 345 346 348 349 350 350 350 350 349 348 348 349 348 349 349 350 351 350 349 349 350 350 349 349 348 348 348 347
354 356 354 356 361 363 365 364 368 359 352 355 355 365 371 364 361 358 357 356 354 356 356 357 361 355 355 359 355 360 358 350 350 350 351 351 350 350 349 349 349 349 349 349 349 349 351 353 354 353 351 347 346 348 348 348 346 345 345 345 343 341 341 341 341 341 341 344 345 346 347 348 350 350 350 350 349 349 348 348 350 350 350 350 350 351 351 350 349 348 349 349 349 349 348 348 347
354 355 355 356 358 360 364 361 362 361 360 364 362 368 370 360 359 357 355 356 354 355 356 357 359 356 356 354 353 355 353 350 350 350 351 351 350 349 349 350 349 350 350 349 349 349 351 353 354 354 353 351 350 349 349 348 346 346 347 347 346 344 342 341 341 341 342 346 347 347 348 349 350 349 350 349 349 348 347 348 349 350 351 351 349 348 349 348 348 348 348 348 348 349 349 348 348
354 356 355 357 359 361 367 361 362 371 367 362 368 370 365 358 356 357 357 358 358 357 357 356 353 358 359 354 354 353 351 351 350 350 351 351 350 349 349 349 350 350 350 350 349 349 351 353 353 354 353 352 351 350 350 349 348 347 348 349 348 346 344 342 342 341 343 346 347 347 348 350 350 350 349 349 349 348 347 347 345 347 349 350 349 347 347 347 347 348 347 348 347 347 348 349 348
354 357 355 362 366 363 365 362 365 374 367 356 362 365 359 356 354 356 358 358 360 359 356 355 353 363 362 354 357 356 352 352 350 350 351 351 350 350 350 350 350 351 351 351 349 349 351 353 354 354 353 353 352 351 351 350 350 349 349 349 348 347 345 344 343 342 343 346 347 347 349 350 350 350 349 348 348 347 347 346 343 345 346 346 347 346 347 347 347 347 347 347 347 347 347 348 349
352 356 360 366 366 363 362 365 365 366 369 361 356 360 358 354 354 356 358 359 359 357 356 357 356 365 361 356 359 355 353 353 351 351 351 351 351 351 351 351 350 351 352 351 350 350 351 353 353 353 353 353 352 351 351 350 350 350 350 349 349 348 347 345 343 342 342 344 346 347 349 349 350 349 348 347 346 346 345 345 343 344 345 345 346 346 346 347 347 346 347 346 347 347 347 347 348
354 358 363 365 361 360 355 356 361 361 366 363 356 357 356 352 355 356 358 359 357 358 359 358 359 362 359 358 360 355 353 352 350 352 352 352 351 351 351 351 350 350 352 351 350 350 352 352 352 353 353 352 351 351 350 350 349 350 351 350 350 349 347 345 344 343 342 343 344 347 349 349 350 349 347 346 345 344 344 345 343 343 344 345 345 346 346 346 347 347 347 347 347 347 346 347 348
360 359 362 366 359 356 353 349 357 364 359 356 355 353 353 352 355 357 359 358 358 361 360 359 360 359 358 357 358 355 353 352 352 352 352 352 352 351 352 351 350 350 351 351 351 351 352 352 352 352 353 353 352 351 350 349 349 349 350 349 349 348 347 345 344 343 343 343 343 346 348 348 349 347 346 345 344 344 343 344 343 344 345 345 345 345 346 346 347 347 347 347 347 347 346 347 348
364 364 363 366 360 358 359 352 355 362 356 354 355 354 352 352 356 358 359 359 360 362 360 359 358 357 359 358 357 355 353 352 352 351 352 352 352 352 352 351 351 350 350 351 352 351 351 352 351 351 353 353 351 351 350 349 349 349 349 348 349 348 347 345 344 343 343 343 344 345 347 348 347 346 346 345 344 343 342 343 342 344 345 344 345 346 346 347 346 347 347 348 347 347 347 347 347
365 368 362 365 365 364 361 352 357 360 355 356 355 353 353 353 357 357 359 360 361 362 359 358 356 357 358 357 357 354 352 352 352 352 352 352 352 352 351 351 351 351 350 350 351 351 351 351 350 351 352 352 351 352 351 350 349 349 349 348 348 347 347 346 344 344 344 344 344 345 346 347 346 346 346 345 345 343 343 345 345 345 343 343 347 348 347 347 346 347 348 348 348 347 346 346 346
365 365 359 364 366 362 356 350 354 351 352 357 353 353 353 353 356 355 359 361 361 360 358 355 353 359 359 358 359 354 352 352 352 352 352 352 352 352 352 351 352 351 351 350 350 351 351 350 351 351 352 351 351 352 352 351 350 350 349 348 348 347 348 347 346 346 345 346 346 346 346 346 346 346 346 346 345 343 344 346 348 348 345 345 347 348 348 348 348 348 349 348 349 347 345 346 347
362 361 355 361 362 355 352 349 350 348 352 356 351 353 354 354 355 356 358 360 360 356 354 354 352 361 361 358 359 354 352 353 352 353 352 352 352 353 353 352 351 352 351 350 349 351 351 351 351 352 351 350 350 352 352 352 351 350 349 347 347 347 348 348 347 347 347 348 348 347 346 347 347 348 348 347 347 346 346 345 345 348 348 348 348 349 349 349 349 348 348 348 349 347 346 347 348
357 360 357 357 357 352 352 351 348 350 353 353 351 353 358 357 355 357 356 357 358 354 354 356 352 359 359 355 356 352 353 353 352 352 352 352 353 353 352 352 352 352 351 350 351 351 352 352 352 352 351 349 349 350 352 352 351 350 349 348 347 347 348 348 349 349 349 349 349 348 347 347 348 348 350 350 349 350 350 345 344 348 350 349 350 350 349 349 349 348 349 349 350 349 348 349 349
355 364 365 360 359 354 355 353 349 352 351 352 353 353 360 360 355 356 354 354 357 355 355 357 352 355 356 353 353 352 353 353 353 352 352 353 353 353 352 352 352 352 352 351 352 352 352 353 352 352 351 349 348 349 351 352 351 351 350 349 349 349 349 349 351 350 350 350 349 348 347 347 346 346 348 350 349 351 351 346 344 347 349 349 350 350 348 350 349 349 349 349 349 349 348 350 350
360 367 367 363 364 361 358 354 351 352 346 351 355 354 361 360 357 355 354 355 356 356 356 356 355 354 353 353 353 353 354 353 354 353 353 353 353 353 352 352 352 352 352 352 352 352 353 353 353 352 351 348 347 348 350 350 350 352 351 350 350 350 350 350 351 351 350 350 349 348 347 346 345 344 345 348 348 348 349 347 345 347 349 351 351 350 350 351 349 349 348 347 348 348 349 350 350
363 365 364 364 366 361 355 351 350 346 344 351 354 355 359 359 357 355 358 358 356 359 359 357 358 355 353 353 354 354 354 354 354 353 353 353 352 352 352 352 352 352 352 352 352 352 353 353 353 352 350 348 347 347 349 349 349 351 352 351 350 351 351 351 351 350 350 350 349 347 346 346 345 343 343 346 347 347 347 347 348 349 351 353 353 351 350 350 349 350 348 345 348 348 349 349 349
365 365 367 365 360 356 353 350 351 347 344 350 354 355 356 357 356 355 358 358 357 360 360 360 360 357 355 353 354 354 353 354 354 354 353 352 352 352 352 352 352 352 352 352 352 353 353 353 353 352 351 349 348 348 349 349 349 350 352 351 351 351 351 351 350 349 349 349 348 346 346 345 344 343 342 345 348 348 346 347 349 349 351 353 353 352 351 351 350 350 350 348 349 348 348 349 349
364 367 370 365 356 357 357 351 352 350 344 349 355 355 355 355 355 355 356 358 360 359 357 359 359 356 356 354 353 354 354 354 354 354 353 353 352 352 352 352 352 352 352 352 353 353 353 353 352 351 351 350 349 348 348 348 348 350 352 351 352 352 351 351 350 349 349 348 348 346 345 345 344 343 342 344 347 347 345 345 347 348 350 351 351 351 351 352 351 351 351 350 349 348 347 348 348
361 364 365 361 357 358 356 350 350 348 343 349 354 355 355 354 355 354 355 361 361 356 354 355 356 355 355 354 354 354 354 354 354 354 353 353 352 352 352 352 351 352 353 353 353 353 353 353 352 351 351 351 349 347 347 347 348 349 350 351 351 352 351 350 349 349 348 347 347 346 344 344 343 343 343 343 345 346 346 347 348 349 350 351 351 351 351 351 350 349 348 349 348 347 348 348 348
359 359 356 356 357 357 354 348 347 346 344 348 352 353 354 355 356 354 354 358 357 353 353 353 353 354 354 354 354 354 354 353 354 354 353 353 352 352 351 351 352 352 353 353 353 353 353 353 352 351 351 351 350 348 347 348 348 349 350 351 351 351 350 350 349 348 347 346 346 345 343 343 343 343 343 343 344 346 348 348 349 350 351 351 352 351 350 350 349 348 348 348 348 348 349 349 349
357 357 352 351 350 350 349 345 344 345 345 346 351 355 355 356 357 355 353 356 357 355 352 352 353 353 354 354 353 354 354 353 354 354 354 353 352 352 351 351 351 351 353 353 353 353 353 353 352 351 351 350 350 349 349 350 349 349 350 352 351 351 350 349 348 347 346 346 345 344 343 343 343 343 344 346 346 347 349 348 349 350 351 352 351 351 350 349 349 348 348 348 348 349 349 349 349
353 354 351 350 348 348 346 344 343 342 343 345 353 357 355 354 355 355 354 355 357 355 353 353 353 353 354 354 354 354 353 354 354 354 354 353 352 351 351 351 351 351 352 353 353 353 353 353 352 351 351 351 350 350 351 351 350 350 351 352 351 351 349 347 347 346 346 345 344 344 343 343 343 343 345 348 348 348 348 348 349 350 351 351 351 351 350 349 349 348 348 349 349 349 349 350 350
351 350 349 349 348 348 346 345 342 340 340 343 353 357 353 352 355 357 355 355 355 353 353 354 353 354 354 354 354 354 353 354 354 354 354 353 353 351 351 351 351 351 352 352 352 353 353 353 353 352 351 351 351 352 352 351 350 350 351 351 351 350 348 346 346 346 345 345 344 343 343 343 343 343 345 348 349 349 349 349 349 350 351 351 351 350 350 349 349 348 349 349 349 349 349 349 350
346 343 344 347 347 347 345 343 340 336 338 343 349 354 353 351 355 358 356 355 354 354 355 354 354 355 354 354 353 353 354 354 354 354 354 353 353 352 351 350 350 351 351 352 352 352 353 353 353 352 352 352 352 352 351 350 349 348 349 349 349 348 346 345 346 345 345 344 343 343 343 343 343 342 344 348 350 350 351 351 351 351 351 351 351 351 350 350 349 349 349 349 349 349 348 348 347
338 336 337 337 336 336 335 334 332 329 337 344 343 347 349 348 352 356 355 355 354 356 356 354 355 355 354 354 353 353 353 353 354 354 353 353 353 352 351 351 350 351 351 351 352 352 353 353 353 352 351 351 351 351 350 349 348 347 347 347 348 347 346 345 345 344 344 344 343 343 343 343 343 342 344 348 350 351 352 352 352 352 351 351 351 351 350 350 350 350 349 349 350 349 347 346 344
333 332 330 329 326 326 325 324 326 329 338 343 340 340 343 346 350 355 355 354 355 356 356 355 355 355 354 354 353 353 353 353 354 353 354 353 352 353 351 351 350 350 351 351 351 352 352 353 352 352 351 351 351 350 350 349 347 346 346 346 347 347 346 345 344 344 344 343 343 343 343 343 344 343 344 348 351 352 352 352 352 352 352 352 351 351 350 350 350 350 349 350 350 348 346 344 342
332 330 324 324 323 323 326 327 330 335 338 341 339 335 338 344 349 357 356 354 356 356 357 356 355 356 355 354 354 354 353 353 354 353 354 353 352 353 351 351 351 350 350 350 351 351 352 352 352 352 351 350 350 349 350 349 347 346 346 346 346 346 346 344 344 344 344 343 343 343 343 343 345 345 345 349 352 352 352 352 351 351 352 352 352 352 351 351 350 349 350 351 350 348 345 342 340
331 329 324 323 319 321 328 333 338 341 338 341 340 333 338 342 346 356 355 353 357 357 357 356 355 356 355 355 354 354 353 352 353 354 353 353 353 352 352 351 351 351 350 350 351 351 351 352 351 352 352 351 350 349 349 348 347 346 346 346 346 346 345 344 344 343 344 343 343 343 343 343 346 346 347 350 352 352 353 352 351 351 351 352 353 353 352 351 351 350 351 351 348 347 343 339 339
327 324 323 323 318 320 326 331 341 345 340 342 341 335 340 342 346 355 355 354 357 357 358 357 355 356 354 355 355 353 354 352 353 353 353 353 353 353 352 351 351 351 351 350 350 350 351 351 351 352 351 351 351 350 349 348 347 347 346 345 344 344 344 344 344 343 343 343 343 342 342 345 347 348 349 351 352 352 352 352 351 350 351 352 353 352 351 351 351 351 350 349 347 345 340 336 336
329 324 321 321 318 320 324 326 336 341 343 343 340 342 347 348 351 355 354 354 357 357 358 357 355 356 355 355 355 354 354 353 353 353 353 354 353 353 352 352 352 351 351 350 350 351 351 351 351 351 351 351 350 350 349 349 348 347 345 344 343 344 344 344 344 343 343 342 343 342 343 348 350 350 350 351 352 352 353 352 351 350 351 352 353 352 351 350 351 350 350 347 345 342 337 334 335
327 324 319 320 319 318 320 324 331 338 345 345 342 345 350 355 356 355 355 354 356 357 357 357 356 355 355 354 354 354 354 354 354 353 353 354 353 354 353 353 352 352 351 351 351 351 351 351 351 351 351 350 350 350 349 349 348 347 345 343 343 344 345 345 344 344 343 343 344 344 347 351 352 352 352 351 352 352 353 352 351 351 351 353 353 352 351 351 351 350 349 345 341 339 334 334 339
325 321 318 318 319 319 319 321 327 336 343 346 345 344 348 356 356 355 355 354 355 357 356 356 356 355 355 354 354 354 354 354 354 353 353 353 354 354 353 353 353 353 352 351 351 351 352 352 351 351 351 350 350 349 350 349 349 348 346 346 346 346 347 346 344 344 346 347 348 349 351 353 353 353 353 352 352 352 353 353 352 352 352 353 353 353 352 351 351 349 347 343 339 337 333 335 341
326 324 320 318 317 319 322 323 326 333 341 346 346 342 345 357 358 356 355 354 355 356 357 356 355 355 354 354 354 355 354 354 353 352 353 353 353 354 353 354 353 353 353 352 352 352 352 352 352 352 350 350 350 349 350 350 350 350 350 350 351 350 350 349 345 345 350 351 352 352 353 353 353 353 353 353 352 352 353 353 352 352 353 354 353 353 352 352 352 348 346 345 340 336 334 335 340
326 324 321 319 318 318 321 325 327 329 338 347 349 343 345 355 357 357 354 355 356 355 357 356 356 355 354 354 354 354 355 353 352 352 353 353 353 354 353 354 353 353 353 353 353 352 353 352 352 352 350 350 349 349 349 350 351 351 352 353 353 353 353 351 347 349 353 353 352 353 352 352 352 352 352 352 352 352 352 353 353 353 354 354 353 353 353 353 351 346 346 346 340 337 335 335 338
326 324 321 320 318 318 321 324 325 330 336 344 351 345 344 353 355 356 355 355 356 356 356 356 356 355 354 354 354 354 354 352 352 352 352 353 353 353 354 354 354 353 353 353 353 353 353 353 352 351 351 350 350 349 349 349 349 350 351 353 353 353 353 352 351 352 354 353 352 352 352 352 352 352 352 352 352 352 352 353 353 353 354 354 354 353 353 354 351 346 345 344 339 337 336 337 340
325 323 320 318 319 320 322 324 325 328 331 339 351 345 342 350 354 355 356 356 355 354 355 355 355 355 355 354 354 353 354 353 353 352 351 352 352 353 354 354 354 353 353 353 353 353 353 353 352 352 351 351 351 350 349 349 349 349 350 352 353 353 353 353 353 353 354 353 353 352 352 352 352 352 352 352 352 352 352 352 353 354 354 354 354 354 354 354 351 346 344 342 338 337 338 340 342
324 322 318 316 320 319 319 323 325 325 328 336 344 344 346 353 357 357 354 354 356 353 354 354 353 355 354 353 353 353 354 354 353 352 351 351 352 352 353 354 354 354 353 353 353 353 353 353 353 352 352 351 351 350 350 350 349 350 351 352 353 353 354 354 354 354 354 353 353 352 352 352 352 352 352 352 352 352 353 353 353 354 354 354 354 353 353 354 351 344 343 340 336 337 340 342 343
322 323 319 318 321 319 320 324 326 325 327 335 337 336 348 361 359 359 355 353 356 354 354 355 353 354 353 352 352 352 353 353 353 352 351 351 351 351 352 353 354 354 354 353 353 353 352 353 353 352 352 352 352 351 352 352 351 352 352 353 354 354 354 354 354 354 354 354 353 353 353 353 352 352 352 352 352 352 353 353 354 355 355 353 353 353 353 354 350 343 341 339 335 336 340 342 342
320 323 322 321 322 322 322 323 323 320 319 331 332 323 339 361 355 355 358 355 356 355 354 355 354 354 353 353 353 351 352 351 352 352 351 350 350 350 351 352 353 353 354 353 353 353 353 352 353 353 352 353 353 352 353 353 353 353 353 353 354 354 354 353 354 354 353 354 354 353 353 353 353 352 353 353 353 353 353 354 354 355 355 353 352 352 352 354 350 342 340 340 338 336 338 341 341
317 323 325 323 323 322 321 320 319 317 318 331 331 321 332 350 350 351 357 357 357 356 355 354 354 354 352 353 352 351 351 351 351 351 350 350 349 349 350 351 352 353 353 354 353 353 353 353 353 353 353 353 353 353 353 354 354 353 353 353 353 353 353 353 354 353 354 354 353 353 353 353 354 353 353 353 353 353 353 354 354 355 355 354 353 351 352 354 349 342 340 340 339 337 337 340 341
318 325 327 325 325 322 321 320 317 319 323 325 329 328 326 330 342 351 353 356 358 356 356 354 353 353 352 352 351 351 350 350 351 350 350 350 349 348 348 350 352 352 353 354 353 354 353 353 354 353 353 353 354 354 354 354 353 353 352 353 353 353 353 353 353 353 354 354 354 354 354 354 354 354 354 353 353 353 354 354 355 355 356 354 353 351 352 354 350 343 341 341 340 338 337 339 339
321 325 325 325 325 323 322 321 317 321 320 313 320 329 319 320 342 353 349 354 357 357 356 353 353 352 351 351 351 350 350 349 350 349 349 349 348 348 348 349 351 352 353 353 354 354 353 354 353 354 354 353 354 354 354 354 353 353 352 352 352 353 352 353 353 354 354 354 354 354 354 354 354 354 355 354 353 353 353 354 354 355 355 355 354 352 352 354 351 344 342 342 341 339 337 338 337
324 323 323 323 322 322 324 322 318 318 317 312 315 321 315 317 335 345 344 348 352 355 355 352 352 351 350 351 350 349 350 349 349 349 348 348 347 348 347 347 349 350 352 353 353 353 353 354 353 354 354 353 354 354 354 354 353 353 352 352 352 352 352 352 353 354 354 354 354 354 354 354 354 354 354 354 354 354 353 353 354 355 355 355 355 353 352 354 353 346 342 343 343 341 338 337 336
324 324 323 322 322 324 327 326 320 315 314 313 314 317 316 315 323 336 342 345 348 352 353 352 351 350 350 350 349 349 349 348 348 348 348 347 346 347 346 346 347 348 351 352 353 353 353 354 353 354 354 353 353 353 354 354 353 353 352 352 352 352 352 352 353 353 354 354 354 354 355 354 354 354 354 354 354 354 354 354 354 354 355 355 356 354 352 354 354 347 343 343 344 344 341 338 336
323 325 321 320 323 321 319 319 317 313 312 315 316 318 316 312 317 333 342 343 345 347 349 350 350 349 348 348 348 348 348 348 348 348 348 347 346 346 345 345 346 347 349 350 352 353 352 353 353 353 353 353 353 353 354 354 354 354 353 352 352 352 352 352 352 353 353 354 354 354 355 354 355 354 354 355 355 355 354 354 354 354 355 356 356 355 353 353 354 349 344 344 345 344 343 340 337
322 323 319 317 318 317 315 315 316 315 316 321 321 317 315 314 323 337 342 341 342 343 346 347 348 348 347 346 347 347 347 347 347 347 347 347 347 346 344 344 344 345 347 349 350 351 352 352 353 353 353 353 353 353 354 354 354 354 354 354 353 352 352 352 352 352 353 354 354 354 354 355 355 355 355 355 355 355 355 354 354 354 355 357 357 356 354 353 354 350 345 345 346 344 343 341 338
319 319 316 315 315 315 316 317 317 316 316 320 321 317 315 318 326 335 336 339 341 340 342 344 345 347 346 345 345 345 346 346 346 347 347 347 347 345 344 343 344 344 345 348 349 350 351 352 352 353 353 353 353 354 354 354 354 354 354 354 354 353 353 352 352 352 353 353 353 354 354 355 355 354 355 354 354 355 355 355 354 354 356 357 357 356 355 354 354 352 347 345 345 343 342 342 339
319 320 319 316 316 317 317 316 315 316 316 316 317 317 317 317 326 335 329 332 340 339 340 342 343 344 344 344 344 343 345 345 345 346 346 347 346 344 343 343 343 343 344 346 348 350 351 351 352 352 352 353 353 353 354 354 354 354 354 354 354 354 353 353 353 352 352 353 353 353 354 354 354 354 354 354 353 354 355 355 354 355 356 356 357 356 355 355 354 353 348 345 344 343 342 341 338
318 321 319 315 318 318 316 318 319 317 315 316 317 321 326 327 333 339 330 328 338 339 340 341 340 343 342 343 344 343 344 344 344 345 346 347 346 344 342 342 343 343 343 345 347 349 350 350 351 352 352 353 353 353 354 354 354 354 354 354 354 354 354 353 353 353 353 353 353 353 353 353 353 353 354 353 353 353 354 355 355 355 356 356 356 356 355 354 355 353 349 345 344 343 342 341 339
319 317 316 317 321 318 314 316 320 315 312 318 320 321 325 327 330 339 334 330 336 339 341 341 340 342 342 342 343 342 342 343 343 345 345 346 346 344 343 342 342 342 343 344 346 347 349 350 351 351 352 352 352 353 353 354 354 354 354 354 354 354 354 354 353 353 353 353 353 353 352 352 353 353 353 353 352 352 354 355 355 355 355 355 355 356 355 354 355 354 349 345 344 343 343 343 339
320 315 317 319 319 319 317 314 314 313 313 318 319 316 317 318 326 343 340 333 336 338 341 342 341 342 341 342 343 341 341 342 342 344 344 345 345 344 343 342 342 343 342 343 345 346 348 349 350 350 351 352 352 352 353 353 354 354 354 354 354 354 354 354 354 353 353 353 353 353 353 352 352 352 352 352 352 353 354 355 355 356 355 355 355 355 354 354 354 354 348 345 344 344 344 343 339
320 320 322 320 317 314 316 315 314 314 315 316 317 318 318 317 326 341 337 335 340 339 340 342 341 342 342 341 342 341 341 341 341 342 343 344 345 343 342 342 342 342 342 343 344 345 347 348 349 350 350 351 352 352 353 353 354 354 354 354 354 354 354 354 354 354 353 353 353 353 353 352 352 351 351 352 353 354 355 355 355 356 355 355 355 355 354 353 354 353 349 346 346 346 346 344 340
321 321 320 321 319 314 315 317 315 315 317 317 314 313 315 321 334 342 339 341 341 337 340 343 340 341 342 341 342 342 342 341 340 341 342 342 343 342 342 342 342 342 342 343 343 344 346 347 349 350 350 350 351 352 352 353 354 354 354 354 354 354 354 354 354 354 353 353 353 353 353 353 352 351 351 352 354 355 355 355 355 355 355 355 355 354 353 353 353 351 349 347 347 347 347 345 341
319 318 315 315 317 316 315 315 315 316 318 318 314 310 315 332 345 345 344 346 341 337 340 341 340 341 341 341 342 342 342 342 340 340 340 341 342 342 341 342 342 342 342 342 342 343 345 346 348 349 349 350 350 351 352 353 353 354 354 354 354 354 354 354 354 354 354 353 353 353 353 353 352 351 351 352 354 354 354 354 354 354 354 354 355 354 353 352 351 350 348 347 348 348 347 345 342
320 319 317 315 315 315 314 314 315 315 316 320 318 309 314 334 342 341 347 347 341 339 338 339 340 340 340 342 341 342 343 343 341 340 339 339 341 342 341 341 342 342 342 342 342 343 344 346 347 348 349 350 350 351 352 352 353 354 354 354 354 354 354 354 354 354 354 354 353 354 353 353 352 352 352 352 353 354 354 354 354 353 354 354 355 354 352 351 350 349 348 348 348 348 347 345 343
Wind_Speed
18 19 16 13 12 10 5 1 1 1 1 2 1 1 1 1 2 2 2 1 1 1 1 3 7 6 3 3 6 5 3 1 2 3 2 2 16 29 23 22 27 26 27 26 24 24 23 22 21 22 23 23 22 22 23 24 25 24 24 23 22 21 21 21 21 21 19 19 18 17 16 15 15 14 14 13 13 12 12 11 11 11 11 10 10 10 10 10 10 10 9 9 9 9 8 7 6
20 18 14 12 11 6 2 1 1 2 1 2 2 1 1 1 2 1 3 3 1 3 3 5 7 5 5 6 8 6 4 4 3 2 2 12 22 22 22 26 28 27 27 26 25 24 23 22 20 22 23 23 23 23 24 24 24 23 23 22 21 21 21 21 20 19 18 18 18 17 16 15 14 13 13 13 12 12 11 11 10 10 10 10 9 9 9 9 10 9 9 8 8 8 8 7 7
21 17 15 11 6 3 1 1 0 1 2 1 3 2 2 1 1 2 4 3 3 6 5 6 6 4 5 4 3 3 2 3 5 4 6 17 17 16 24 28 28 27 27 27 26 24 24 23 21 21 23 25 24 24 24 23 23 22 22 21 21 21 21 20 18 17 17 18 17 16 15 14 13 13 12 12 12 11 11 10 10 10 9 9 9 9 9 9 9 9 8 7 7 7 7 7 7
21 17 16 9 2 1 1 1 1 1 2 1 3 2 2 2 2 3 4 5 6 7 5 5 4 1 2 4 1 3 3 3 6 6 8 14 15 22 28 28 29 27 28 27 26 25 24 23 21 21 23 24 24 23 22 22 22 22 21 20 20 21 20 19 17 17 17 17 16 15 14 13 12 12 12 11 11 10 10 9 9 9 9 9 9 8 8 9 9 8 7 7 7 6 7 6 6
21 18 14 5 0 1 0 0 1 2 1 2 1 3 2 2 3 4 4 6 6 7 5 3 3 2 4 3 1 2 4 6 7 8 10 12 18 28 29 29 30 28 29 28 26 25 24 23 21 22 22 23 22 22 22 22 22 21 20 20 19 19 19 18 17 16 16 15 14 14 13 12 11 11 11 10 10 10 9 8 8 8 8 8 8 8 8 8 8 8 7 7 6 6 6 6 5
20 14 8 3 1 1 0 1 2 1 3 3 2 4 2 2 4 6 7 7 5 5 4 3 4 4 4 3 3 3 5 7 8 10 13 16 23 30 30 31 30 28 29 28 27 25 24 23 21 21 21 22 22 21 21 21 21 20 19 19 18 18 18 17 16 15 15 14 13 13 12 11 10 10 10 9 9 9 8 8 7 7 8 7 7 8 7 7 8 8 8 7 6 6 6 5 5
18 8 3 2 0 1 1 1 3 3 4 4 3 3 3 3 5 7 7 5 4 4 4 4 6 7 3 1 3 3 5 7 9 12 16 21 28 30 30 31 29 28 29 29 27 25 25 23 21 20 21 22 21 21 21 20 20 19 18 18 17 17 17 16 15 14 14 13 12 12 11 10 9 9 9 9 8 8 8 7 7 7 7 6 7 7 7 7 7 7 7 7 6 6 5 4 5
15 3 1 1 0 0 1 2 3 2 3 3 2 3 5 6 7 7 6 3 2 3 3 5 5 5 3 2 3 4 6 8 11 16 19 25 30 29 29 30 28 27 28 29 27 26 24 22 21 21 22 22 21 21 20 20 19 18 17 17 16 16 16 15 14 14 13 12 12 11 10 9 9 8 8 8 8 8 7 6 6 6 6 6 6 7 7 7 7 6 6 6 6 6 5 5 4
8 1 1 1 1 1 2 2 3 3 3 3 3 3 7 7 7 6 5 3 4 4 4 5 3 4 4 5 5 4 8 12 16 18 22 26 29 29 29 29 28 26 27 29 27 26 24 22 22 21 22 22 21 21 19 19 18 18 17 16 15 15 15 14 14 13 12 11 11 10 9 9 8 7 7 7 7 7 6 6 5 5 5 5 6 6 6 6 6 6 6 6 6 5 6 5 4
2 1 0 0 0 2 2 2 3 2 3 3 3 5 8 8 7 5 5 5 6 5 4 4 5 6 7 6 4 4 9 18 21 19 22 25 26 28 28 27 28 27 27 28 27 26 24 23 22 21 22 22 22 21 19 19 18 17 16 16 15 14 14 13 13 12 11 11 10 9 8 8 7 7 6 6 6 6 5 5 5 4 5 5 5 5 5 5 6 5 5 5 5 5 5 5 5
2 1 1 1 1 2 2 2 3 3 3 2 2 6 8 9 8 5 5 6 5 6 4 5 6 6 7 5 3 6 14 21 22 21 23 24 25 27 27 25 27 27 27 28 27 26 24 22 22 21 20 22 22 20 20 19 18 17 16 16 14 14 13 13 12 12 11 10 9 9 8 7 6 6 5 5 5 5 4 4 4 4 4 4 4 5 5 5 5 5 5 5 4 4 4 4 4
1 1 1 0 1 2 3 2 4 4 3 1 3 5 8 10 8 6 8 7 5 6 4 3 6 6 6 4 2 9 16 19 21 22 23 23 24 25 25 24 25 26 27 28 27 25 24 22 22 21 20 21 22 20 20 19 18 17 16 15 14 14 13 12 12 11 11 9 9 8 7 6 5 5 4 4 4 4 3 3 3 3 4 4 4 4 4 4 4 4 4 4 3 3 3 3 3
1 2 2 1 2 2 2 2 4 1 1 2 4 5 9 10 9 8 8 7 7 7 3 4 7 5 5 4 5 9 13 17 21 22 23 23 24 23 23 24 24 25 26 27 27 25 24 22 22 22 20 21 21 20 19 19 18 17 16 15 14 13 12 12 11 11 10 9 8 8 7 6 5 4 3 3 3 3 2 2 2 3 3 3 3 3 3 3 3 3 3 3 3 2 2 3 3
2 2 3 1 1 1 2 2 3 2 2 2 5 7 9 8 8 8 8 9 6 5 5 7 8 6 5 6 6 7 11 19 23 22 22 22 23 22 21 23 24 24 25 27 27 25 24 23 23 22 21 21 21 20 19 18 18 17 16 15 14 13 12 12 11 11 10 9 8 7 7 6 5 4 3 3 2 2 1 1 1 1 2 2 3 3 4 3 3 3 3 2 2 1 1 2 2
3 1 3 1 3 3 2 2 3 4 4 3 7 10 7 4 8 9 9 9 5 4 8 8 5 4 5 8 6 8 16 24 24 23 22 21 22 21 21 22 23 23 24 26 26 25 24 24 24 23 22 23 22 20 19 18 17 17 16 15 14 13 12 11 11 11 10 9 8 8 7 5 5 4 3 3 2 2 1 1 1 0 1 2 3 4 4 4 3 3 3 2 1 1 0 1 1
2 1 2 2 2 3 2 3 1 3 4 3 8 11 7 3 7 7 4 5 5 7 6 5 4 2 7 7 7 15 23 26 25 25 22 21 21 20 21 22 22 23 23 25 25 25 25 25 24 24 23 24 23 22 20 19 18 17 16 15 14 13 12 12 11 11 10 9 8 8 7 6 5 5 4 3 3 3 2 2 1 1 2 3 3 4 4 3 3 2 2 1 2 1 1 0 0
2 0 1 1 2 2 2 2 2 3 3 4 9 11 9 4 5 3 4 6 8 9 3 3 2 1 7 8 15 25 27 26 25 24 22 21 21 20 21 22 22 23 23 24 25 25 25 26 25 24 24 25 24 23 21 20 19 17 16 15 14 13 13 12 12 11 10 9 9 8 7 7 7 6 5 5 4 4 4 3 2 2 2 3 4 4 3 3 2 2 0 1 1 2 2 1 0
2 2 1 2 3 3 4 4 4 3 2 6 9 10 12 9 6 4 6 5 6 7 2 4 4 5 10 16 26 29 27 27 26 24 22 21 20 20 21 22 23 24 24 25 25 25 26 26 26 25 25 25 25 23 22 21 20 18 16 16 15 14 13 13 12 12 11 10 10 9 8 8 7 7 6 6 5 4 4 3 2 3 3 3 4 4 2 2 2 2 0 2 1 2 2 1 1
3 2 2 4 4 4 4 4 4 0 1 7 8 8 11 11 9 5 5 6 8 7 3 5 7 8 12 20 28 28 27 26 25 24 22 21 20 19 20 22 23 23 25 25 25 26 26 26 26 26 26 26 26 25 23 22 21 19 18 17 16 15 14 14 13 13 12 11 11 10 9 9 8 8 7 7 6 5 4 3 3 4 4 3 4 4 2 2 2 2 1 1 1 2 2 1 1
4 3 3 6 5 5 6 5 5 4 3 8 7 6 6 9 9 5 6 9 8 7 7 8 8 10 13 17 23 26 25 23 23 23 21 21 20 19 19 21 22 23 26 26 26 26 26 27 26 26 27 26 26 25 25 23 22 20 19 19 17 17 16 15 15 14 13 12 12 11 10 9 9 8 8 7 6 6 6 4 4 4 4 3 3 4 3 3 3 3 2 2 3 3 3 2 2
3 5 5 5 3 5 8 6 6 6 5 9 7 5 4 6 7 6 10 9 5 8 11 14 15 16 17 17 20 24 23 21 22 21 21 20 19 19 19 21 21 23 24 24 25 26 26 27 26 27 27 27 27 26 26 24 23 21 20 20 19 18 17 17 16 15 15 14 13 12 11 10 10 9 9 8 7 7 7 6 5 5 4 3 4 5 5 5 5 4 3 4 4 4 3 3 3
2 7 7 6 3 5 7 4 5 5 3 7 8 8 7 6 6 8 14 11 8 11 14 15 19 20 20 20 20 21 19 19 21 22 22 21 20 20 20 21 22 22 24 24 25 26 26 26 27 27 27 27 27 26 26 25 24 22 21 21 20 19 18 18 17 16 16 15 14 13 12 11 11 10 10 9 8 8 8 7 6 6 5 5 5 6 6 5 5 4 4 4 4 4 3 3 3
4 5 6 8 6 8 10 2 5 5 3 6 8 8 9 9 7 10 16 11 4 7 12 12 16 20 22 21 19 19 18 18 20 22 23 23 22 21 22 23 23 24 25 25 26 26 27 27 27 27 27 27 27 27 26 25 24 23 22 22 21 21 20 19 18 17 16 15 14 14 13 12 12 11 11 10 9 9 9 8 7 6 7 7 6 7 6 5 5 5 4 4 4 4 4 4 4
8 7 6 7 7 10 12 8 5 6 6 7 7 7 10 14 9 9 15 9 2 5 10 11 13 18 21 19 18 18 18 18 20 23 25 24 24 22 23 24 24 25 25 25 25 26 27 27 27 27 27 27 27 27 26 26 25 24 23 22 22 21 21 20 19 18 17 16 16 15 14 13 13 12 12 11 10 10 10 9 8 8 8 7 7 8 7 6 5 5 5 4 4 5 5 6 6
9 9 6 6 7 11 11 10 9 6 7 5 8 10 14 16 9 10 16 7 5 10 12 12 14 16 18 18 19 17 16 18 20 23 23 22 22 23 23 24 24 25 26 26 26 27 28 28 28 27 27 27 26 26 26 26 26 25 24 23 23 22 22 21 20 19 18 17 17 16 15 14 14 13 13 11 10 10 10 10 9 9 8 8 8 8 8 7 6 6 5 5 5 6 7 7 7
8 9 8 8 10 11 10 9 10 8 5 6 10 12 14 12 6 7 12 6 8 12 13 14 15 16 16 16 18 17 17 18 19 22 23 22 23 23 24 25 25 27 27 26 27 28 28 28 28 27 27 27 26 25 27 27 27 26 25 24 24 23 23 22 20 20 19 18 17 17 16 15 15 14 13 12 11 11 10 10 10 10 9 9 9 9 8 8 7 7 6 6 6 8 8 6 5
5 6 9 11 12 11 9 9 11 8 3 10 12 13 13 10 6 6 5 9 12 13 14 14 15 16 16 15 15 16 16 18 21 22 21 21 23 24 25 26 26 27 28 27 28 28 28 28 29 29 28 27 27 27 27 28 28 27 27 25 24 24 23 22 21 21 20 19 18 17 17 16 15 15 14 13 12 12 11 11 10 11 11 10 10 9 8 9 8 7 7 6 8 8 6 5 4
6 6 9 12 10 10 9 9 11 5 4 11 13 9 8 8 8 8 7 12 14 15 15 15 15 14 14 16 14 12 12 18 22 22 21 22 24 26 27 29 29 28 29 30 29 29 28 29 30 30 30 28 28 29 28 28 28 28 28 27 25 24 24 23 22 22 21 20 19 18 17 17 16 15 15 14 13 13 13 13 12 12 12 10 10 10 9 9 9 8 8 7 8 8 6 5 5
6 5 7 11 7 8 10 8 7 4 4 9 10 3 4 10 11 8 11 13 15 16 15 15 15 12 12 14 12 11 12 17 21 20 22 25 26 28 29 30 31 30 30 30 29 29 29 30 30 30 30 30 29 30 29 29 29 29 29 28 26 25 25 24 23 23 21 20 19 19 18 17 17 16 16 15 14 14 14 14 14 13 13 11 10 10 10 9 9 8 8 8 8 8 6 5 4
3 2 3 6 6 7 7 3 4 5 4 10 12 1 6 13 10 9 13 14 15 14 14 14 13 11 12 12 11 11 12 16 18 21 24 26 27 29 29 30 32 31 29 29 29 30 30 30 31 30 30 31 31 31 30 30 30 30 29 28 27 26 25 25 24 23 22 21 20 19 19 18 17 17 17 16 15 15 15 14 15 15 14 12 11 11 10 9 9 8 8 8 8 6 5 5 4
2 2 2 2 2 6 6 0 3 3 4 11 12 5 7 10 9 10 14 16 18 15 14 14 13 12 11 11 12 12 12 15 19 23 25 26 27 28 28 29 31 31 30 30 32 32 31 31 31 31 31 32 32 31 31 31 31 30 30 29 28 26 25 25 24 23 22 21 21 20 19 19 18 18 18 17 16 16 16 15 15 15 13 12 11 11 11 10 9 9 8 8 6 5 4 5 6
1 1 3 2 2 6 7 2 6 5 4 9 10 5 5 6 8 12 14 16 18 16 15 15 14 14 13 12 12 12 11 14 19 22 24 26 26 27 29 30 31 33 32 32 33 32 31 31 31 31 31 32 32 32 32 32 31 31 31 30 29 27 26 25 25 24 23 22 21 21 20 19 19 19 19 18 18 17 16 16 15 14 13 12 11 12 11 10 9 9 9 7 5 4 3 5 7
1 2 4 3 3 4 6 4 5 6 3 5 9 5 1 3 8 11 13 16 16 15 15 16 15 15 14 12 11 11 11 12 15 20 25 27 27 28 29 31 33 34 33 33 33 33 33 32 32 32 32 33 34 33 32 32 31 31 31 30 29 28 27 26 25 24 23 22 22 22 21 20 19 19 19 19 19 18 17 17 15 14 13 12 12 12 11 10 9 9 8 6 5 4 4 5 6
2 1 3 4 4 4 4 5 4 3 4 5 10 8 4 3 8 13 14 16 15 14 15 16 15 13 13 11 10 11 12 13 14 19 26 28 28 29 30 31 33 32 33 33 34 34 34 33 32 32 33 33 34 33 32 32 31 30 30 30 29 28 27 26 25 24 24 23 23 22 21 20 19 19 19 20 20 19 18 17 16 14 13 13 13 12 11 10 9 9 8 6 6 5 5 4 4
4 3 3 4 4 4 6 6 3 1 3 5 8 10 8 3 7 13 14 16 16 15 16 15 14 14 13 12 12 12 12 14 15 20 28 30 29 30 30 30 31 31 32 32 33 33 33 32 32 32 32 32 33 33 31 31 30 29 29 28 28 28 27 26 25 25 24 24 23 23 22 21 20 20 20 20 20 20 19 18 17 15 15 14 13 12 11 10 10 9 8 8 7 6 5 5 4
7 6 4 4 4 5 6 6 5 2 2 6 7 10 10 5 8 12 13 15 15 13 12 12 12 12 12 12 12 12 14 15 16 22 28 29 30 31 30 30 30 31 31 31 32 32 32 32 32 32 32 32 32 32 31 30 29 28 28 28 28 28 28 27 26 26 25 25 25 23 22 21 21 21 20 20 21 21 21 19 18 16 16 15 14 13 12 11 11 10 10 10 9 7 7 7 6
5 4 3 5 5 7 5 4 7 2 3 6 8 11 12 8 10 12 13 13 13 12 12 12 12 12 13 14 14 15 16 14 14 20 25 27 29 30 30 30 30 31 31 31 32 33 34 33 33 33 33 32 32 33 32 32 30 29 28 28 29 29 28 28 27 27 27 26 25 24 23 22 21 21 21 21 22 22 22 21 19 18 17 17 16 14 13 12 11 10 10 10 10 9 8 8 7
6 5 4 5 6 7 6 4 7 2 2 6 5 7 10 8 8 9 11 14 15 15 15 15 16 15 13 14 16 16 13 10 11 16 21 26 27 29 30 29 30 31 31 33 34 35 35 35 35 35 34 33 34 35 34 33 33 32 30 29 29 29 29 29 28 28 28 27 25 24 24 22 22 22 22 22 23 23 23 22 21 20 18 18 17 15 13 13 12 11 11 11 10 9 8 8 7
6 5 4 6 5 4 6 5 5 3 3 6 4 6 8 6 7 9 12 15 15 16 18 19 19 17 15 16 16 15 12 10 13 15 19 25 28 29 30 29 31 33 33 35 36 36 35 35 36 35 35 36 35 36 35 35 35 34 31 29 28 28 28 29 28 28 27 26 26 25 24 24 23 22 21 22 23 24 23 23 22 21 19 19 18 16 15 14 13 12 12 11 10 9 8 7 7
5 5 5 6 4 1 4 4 4 3 4 5 3 3 5 2 5 8 12 12 9 11 15 14 14 16 17 18 16 15 15 14 15 16 16 22 26 29 30 30 32 32 32 35 36 36 36 37 37 37 38 38 37 38 37 36 34 32 31 28 27 27 27 26 27 27 27 27 27 26 26 26 25 23 21 21 23 23 23 22 22 21 20 19 19 17 16 15 14 13 12 11 10 9 9 8 8
5 6 7 7 4 4 4 4 4 4 3 3 0 3 6 2 6 8 9 10 9 9 11 10 11 13 14 13 13 14 15 15 16 17 17 18 22 27 31 31 31 32 33 35 37 38 38 39 40 40 40 39 39 39 38 35 32 30 29 26 24 24 24 24 25 27 29 30 29 29 28 27 27 25 22 22 23 23 23 22 22 22 21 20 19 18 17 16 15 14 13 12 11 10 10 9 8
5 7 10 9 5 4 2 2 4 4 4 4 2 2 6 3 7 9 8 10 12 10 12 14 13 13 12 11 13 14 14 14 14 16 17 17 21 27 30 32 32 33 36 37 39 40 40 40 41 41 40 39 39 39 38 36 34 32 30 28 26 24 24 26 28 29 30 31 31 30 29 28 27 26 24 23 23 24 24 23 23 22 21 20 19 19 17 16 16 16 14 13 12 11 11 10 9
6 6 9 8 6 6 4 2 0 1 4 5 2 3 5 4 5 9 7 11 16 13 14 16 13 13 14 13 13 14 14 14 14 14 15 16 20 23 27 32 35 36 39 40 39 40 41 40 40 41 40 39 39 38 37 37 36 35 34 33 32 29 28 29 30 29 29 31 31 30 29 27 28 27 25 24 24 24 24 24 24 23 22 21 20 19 18 17 17 17 16 14 13 12 12 12 10
6 5 9 8 7 7 6 6 4 4 4 6 2 4 3 5 6 8 9 11 13 14 15 15 14 15 16 15 15 15 15 15 14 15 16 16 19 22 26 34 38 39 41 40 39 41 42 41 40 42 42 40 40 39 39 39 39 38 37 35 33 32 33 31 28 26 27 28 29 30 29 28 28 28 27 25 25 25 25 25 25 24 23 22 21 20 19 18 18 18 17 16 14 13 13 13 12
5 6 7 7 7 6 6 6 5 3 2 7 5 5 4 6 6 4 7 10 12 15 18 16 16 17 17 17 17 16 16 16 16 16 17 17 20 26 31 35 39 41 40 40 42 43 43 43 42 42 42 41 40 40 40 41 41 40 38 36 34 34 34 31 26 24 25 26 27 29 29 29 29 29 28 27 26 26 26 25 25 25 24 23 22 21 20 19 19 20 19 17 16 15 14 14 14
5 6 3 1 2 3 4 6 4 2 3 9 7 6 5 7 5 2 5 9 12 14 16 16 16 18 17 17 17 17 15 14 15 16 16 18 23 30 33 34 37 39 39 40 42 42 42 42 42 42 43 42 41 41 41 42 42 40 38 37 36 35 33 29 25 24 24 25 27 28 29 31 31 30 29 28 28 27 26 26 26 25 25 24 23 23 21 20 20 22 21 19 18 17 16 16 15
5 5 2 3 2 3 2 2 3 2 6 10 9 8 7 7 5 5 5 8 13 13 12 13 14 15 16 16 16 17 16 14 15 15 16 18 25 31 31 31 33 35 36 37 37 37 38 40 41 42 43 42 41 41 42 43 43 41 40 40 39 37 34 30 27 26 26 26 27 29 31 31 31 31 30 29 28 28 27 26 26 26 25 25 24 24 23 22 21 23 23 21 19 18 18 18 17
6 5 4 2 4 4 2 2 2 5 8 8 8 8 7 9 6 5 7 10 14 15 14 15 17 18 17 16 17 17 17 16 15 15 15 16 19 23 25 28 30 31 32 33 35 35 36 37 39 40 41 41 41 41 42 42 42 42 42 41 41 40 36 32 31 30 29 29 30 30 30 31 31 32 31 30 30 29 28 27 26 26 26 26 26 25 24 22 22 24 24 23 21 20 20 19 18
6 5 6 4 2 2 3 2 2 6 8 5 7 7 6 10 6 6 10 11 14 15 16 17 19 20 19 18 18 17 16 16 15 15 15 15 15 17 21 26 28 29 31 34 35 36 36 37 38 38 39 41 41 40 41 41 42 42 42 41 41 40 37 35 34 33 32 32 31 31 30 31 32 32 33 33 33 32 31 29 28 28 27 27 26 25 25 23 23 24 25 24 22 21 21 21 20
8 6 6 6 4 4 5 4 2 5 7 5 5 6 4 7 5 10 14 13 14 16 16 17 19 21 22 21 20 18 17 17 17 16 15 15 16 16 20 26 28 30 33 35 35 36 37 37 38 39 40 41 41 41 41 41 42 43 43 42 41 39 38 37 36 35 34 33 33 32 33 33 33 33 35 35 35 33 32 31 30 29 28 27 26 26 26 24 24 25 26 24 23 22 22 22 22
7 6 6 5 5 6 5 4 4 4 6 4 1 4 5 4 5 10 14 14 13 14 15 16 17 18 19 18 17 16 16 17 16 16 16 17 18 18 21 26 28 31 34 36 36 36 36 36 39 41 40 41 42 41 41 42 43 43 43 42 41 40 39 38 38 37 36 35 35 34 34 34 34 35 36 35 35 34 33 32 31 30 29 27 27 27 26 26 25 26 26 25 23 23 23 23 22
5 5 6 6 6 6 3 4 6 3 3 3 2 4 5 5 5 6 9 11 12 13 15 15 16 16 15 14 13 13 14 16 16 15 17 18 18 19 23 26 28 31 33 35 36 37 38 38 39 41 41 42 43 43 43 43 44 43 43 43 42 40 39 37 37 37 36 37 37 36 36 36 36 35 35 34 34 34 34 33 32 31 30 28 27 27 27 27 27 27 27 26 25 24 24 24 23
3 5 7 6 5 7 4 4 3 2 3 4 2 3 5 4 6 6 6 8 10 12 13 15 16 17 15 13 11 12 14 16 17 17 18 19 18 19 24 27 29 31 32 35 38 40 41 40 39 40 41 41 42 44 44 44 43 43 42 43 42 41 40 38 38 38 38 38 37 38 37 36 36 35 35 34 34 34 34 33 33 33 32 30 29 28 28 29 28 28 28 28 26 25 25 25 24
6 6 8 2 5 4 4 3 3 3 5 5 1 3 5 3 5 5 5 8 10 11 12 14 16 15 15 13 12 13 15 16 17 18 17 17 17 18 23 28 31 34 36 38 41 42 42 42 41 41 41 41 43 44 45 44 43 42 42 43 42 42 41 40 40 40 38 37 36 37 37 36 36 36 35 34 34 34 34 33 33 33 33 31 30 29 30 30 29 29 29 29 28 27 26 26 25
5 6 7 5 3 4 3 3 5 5 5 5 3 4 5 6 5 3 7 10 11 11 11 12 14 14 14 14 14 15 15 14 14 16 15 15 17 18 23 28 32 35 37 39 42 41 40 41 41 42 42 44 44 43 43 42 42 42 42 43 44 43 43 41 40 39 38 37 37 37 38 37 37 36 35 35 34 34 34 34 34 34 33 32 31 31 30 30 31 31 31 31 30 29 28 27 26
3 3 5 4 3 4 5 4 4 4 4 4 3 4 5 6 6 6 9 12 12 12 11 12 14 15 14 15 15 14 13 13 14 16 16 17 18 20 26 31 33 36 37 38 38 38 39 40 41 41 42 42 40 40 40 41 42 42 41 41 42 43 42 41 40 39 38 38 38 38 38 38 37 36 36 36 36 35 35 35 34 34 34 34 33 32 31 31 31 32 32 33 32 31 30 29 28
5 5 6 4 2 2 3 3 2 4 4 4 3 5 6 5 5 9 11 12 13 13 12 12 13 15 15 15 15 14 13 14 14 15 16 18 18 20 27 33 34 35 36 36 35 36 39 40 39 41 40 39 38 39 40 41 42 41 40 40 41 41 41 40 39 39 39 39 39 39 39 38 37 37 37 36 36 37 36 36 35 35 35 35 35 34 32 32 33 34 34 33 33 32 32 31 29
9 8 8 8 5 3 4 4 3 3 5 4 4 6 9 5 5 8 9 10 11 12 12 11 11 13 13 13 15 15 12 12 13 14 15 17 17 18 23 29 30 30 31 32 33 35 36 37 38 40 39 38 39 40 41 42 41 40 41 41 40 40 40 40 39 39 39 39 39 39 39 38 37 37 37 38 38 38 37 36 36 36 36 36 36 36 34 34 34 35 35 34 33 33 33 32 30
Wind_Direction
145 143 148 163 171 175 168 197 303 327 289 301 286 346 254 126 99 115 130 161 125 163 154 120 132 132 123 135 147 125 65 134 143 133 197 178 149 153 157 160 157 150 149 147 146 144 141 141 138 137 139 139 139 138 138 138 137 136 135 133 132 132 133 133 133 129 124 123 123 122 120 118 115 112 109 105 102 98 95 91 89 86 83 81 80 80 81 81 81 81 80 82 83 81 80 79 83
147 148 155 166 172 176 160 190 340 340 9 343 294 212 207 97 116 143 155 180 153 144 119 111 116 88 74 109 130 115 55 31 71 110 117 135 141 151 159 161 157 152 152 150 148 145 141 141 139 139 140 141 140 139 139 139 137 136 135 134 133 134 133 133 131 127 125 127 126 126 124 121 117 114 110 107 104 101 97 93 89 86 83 81 78 76 75 76 78 78 75 78 80 81 81 76 76
150 155 161 165 172 202 299 64 144 351 61 339 276 235 159 112 176 178 167 171 132 128 119 113 104 87 92 98 104 99 88 59 105 114 124 141 143 155 161 161 157 154 153 152 151 148 144 141 141 141 141 142 140 141 140 138 137 136 135 134 134 134 133 132 129 127 129 130 129 128 126 122 118 116 113 109 106 103 100 96 92 88 86 83 80 77 72 74 76 76 74 74 73 76 81 79 77
154 161 162 165 171 233 324 52 184 109 84 238 273 269 185 170 167 154 153 138 128 126 130 127 95 6 105 110 69 75 103 108 132 131 139 157 160 159 160 160 158 155 153 154 154 152 146 143 145 144 143 145 144 143 142 140 138 136 135 135 135 134 133 133 132 132 133 132 131 129 126 124 121 119 116 111 108 105 101 97 93 90 86 81 79 77 71 71 75 76 75 74 70 67 75 77 76
157 163 161 171 352 111 86 74 191 109 191 197 247 274 220 174 122 106 110 118 132 137 139 126 84 18 69 87 67 103 120 116 142 149 146 164 163 157 158 160 158 155 154 155 156 153 148 146 148 147 146 147 147 147 144 141 139 137 136 135 136 136 136 135 135 136 135 134 132 131 129 127 124 121 117 113 110 106 102 95 91 88 83 78 77 76 71 68 70 72 73 74 71 64 66 71 72
154 163 175 225 322 130 199 254 233 232 237 169 171 269 203 153 110 104 106 107 114 123 118 88 103 105 75 47 48 111 139 126 150 164 154 160 161 158 159 160 158 155 154 156 157 154 151 151 152 151 150 150 150 149 146 142 140 140 138 136 137 137 137 137 137 138 137 136 134 133 132 130 127 125 121 116 111 108 104 96 91 88 85 81 76 75 74 68 66 66 69 72 72 71 67 66 71
149 159 192 247 265 210 262 258 239 243 243 177 175 221 159 138 118 120 123 114 90 81 78 99 119 106 84 114 91 96 132 136 150 164 162 158 158 158 160 160 159 156 156 157 158 157 155 154 154 155 154 153 152 151 148 144 143 142 140 138 138 139 138 138 140 142 141 139 138 137 136 135 131 128 123 119 114 110 106 100 95 89 87 82 73 70 69 67 67 68 69 69 66 67 72 76 77
151 155 154 230 18 337 257 256 243 221 238 218 211 168 147 138 130 139 144 127 103 100 102 129 126 95 75 112 113 85 101 132 149 160 160 155 156 157 159 160 158 157 158 159 160 159 157 156 157 159 158 155 154 153 150 147 146 144 143 141 141 141 140 141 143 145 146 144 143 141 141 140 136 132 126 120 115 111 109 105 98 90 86 78 71 65 63 62 62 67 70 72 66 57 64 81 87
159 229 127 246 1 314 259 263 254 226 246 250 254 160 137 136 132 142 144 112 115 122 126 144 120 100 104 91 103 94 101 133 146 152 154 153 156 157 159 161 159 159 160 161 161 160 160 161 162 163 160 157 156 155 153 151 150 148 146 145 145 145 144 145 147 150 151 149 147 146 146 145 141 136 129 124 116 113 111 105 98 90 85 75 66 61 58 56 57 62 66 72 73 62 55 64 82
165 271 127 26 68 320 293 283 264 236 248 224 214 157 137 137 137 142 136 126 133 123 116 109 84 113 123 101 98 108 126 138 141 145 151 153 156 158 159 161 161 160 161 163 163 164 164 165 165 165 163 160 159 158 157 156 154 152 150 150 150 150 149 150 151 153 154 155 153 152 152 149 148 141 134 128 119 116 110 103 96 87 82 73 63 56 49 45 49 55 59 66 72 72 63 54 65
117 223 230 1 75 298 268 280 278 264 258 213 156 150 143 142 138 137 131 133 132 118 127 100 96 123 113 101 89 119 135 139 141 146 152 154 156 158 158 161 163 161 163 165 165 167 168 167 167 168 166 163 163 162 161 160 159 157 155 155 154 154 154 154 157 157 158 160 160 158 156 156 153 145 138 135 127 119 110 102 93 81 73 65 57 52 44 35 36 41 44 52 61 69 72 64 56
107 180 165 215 196 232 231 265 275 270 273 136 135 155 142 143 147 157 148 145 133 123 163 148 141 141 101 101 107 130 138 138 143 149 153 155 156 158 159 161 163 163 165 167 168 169 170 169 168 171 170 167 165 165 166 165 164 163 161 160 159 159 158 160 162 163 164 165 166 164 163 164 161 154 149 147 137 124 114 102 87 74 62 56 54 46 39 31 27 34 36 39 52 57 60 72 67
130 169 112 226 202 204 243 271 270 232 229 175 154 158 141 150 164 166 148 141 147 144 178 159 150 136 93 114 124 138 144 145 147 151 154 155 157 158 160 162 163 166 167 169 170 171 172 170 170 173 174 171 168 169 171 170 170 168 167 166 165 165 164 165 167 169 171 170 171 171 171 173 169 167 163 159 147 133 122 98 81 67 51 38 40 37 37 33 26 29 32 34 43 56 50 60 77
156 182 128 239 272 268 246 256 274 147 202 215 145 148 148 161 163 155 143 144 164 163 138 135 140 109 102 135 138 155 155 153 152 151 154 156 158 157 160 163 165 168 168 171 172 172 173 172 172 174 176 175 173 173 174 175 175 174 172 172 171 170 171 171 173 176 178 177 179 179 179 179 178 182 179 181 176 160 150 113 84 69 37 15 22 21 21 19 15 9 10 11 13 49 78 60 68
185 285 119 290 330 310 242 213 250 160 212 211 148 151 147 155 147 153 160 155 161 147 121 130 150 103 148 172 162 169 157 156 155 152 153 154 158 158 160 164 167 170 170 173 173 175 175 173 175 176 178 178 178 177 177 179 180 180 177 177 177 177 178 178 179 182 184 185 185 186 185 185 189 196 196 202 203 202 215 241 273 52 354 356 2 356 356 354 355 350 352 354 341 333 116 85 52
191 348 75 330 304 299 256 222 207 154 229 194 153 150 130 109 138 154 170 129 123 145 133 149 196 144 164 179 152 154 153 154 154 154 154 152 156 157 162 165 168 171 173 176 177 179 177 175 178 179 181 182 182 182 181 183 184 184 183 183 183 183 184 184 185 187 189 190 191 191 191 193 200 206 207 218 222 226 243 261 289 317 323 331 330 334 339 335 340 333 335 350 320 277 243 95 50
157 17 78 312 262 271 236 222 150 173 241 154 158 154 132 129 137 126 91 87 127 151 150 143 188 111 148 149 140 147 150 152 152 154 154 152 155 157 163 167 169 174 176 180 181 181 180 179 181 182 184 185 186 186 186 187 186 187 188 188 189 189 190 190 191 191 194 195 196 197 200 204 210 212 212 222 226 233 247 262 290 306 305 308 312 317 320 323 330 313 318 117 285 261 243 219 156
170 156 165 233 232 238 211 213 190 189 234 157 167 161 143 150 160 139 99 90 126 135 98 101 70 61 116 130 137 145 151 154 154 155 156 156 158 160 166 170 172 177 179 182 184 183 183 183 184 185 186 188 189 189 190 191 189 190 191 193 193 194 194 195 197 196 199 199 200 204 207 212 218 219 220 226 229 235 246 264 278 285 289 292 308 307 304 325 323 297 255 141 190 234 236 213 166
203 166 180 229 218 224 211 208 197 105 224 167 167 167 156 156 158 156 134 139 143 131 105 96 88 95 115 130 138 147 155 157 158 158 160 162 165 166 168 172 175 179 181 183 186 186 186 186 187 188 188 190 191 193 194 194 194 194 194 196 197 197 197 199 200 200 204 203 204 209 213 219 224 226 228 230 236 243 248 262 266 277 284 286 302 297 294 316 302 294 294 163 209 218 220 199 179
206 196 219 242 231 252 261 240 249 287 170 158 162 168 159 153 152 159 145 150 166 163 151 136 137 141 136 140 144 151 158 160 160 160 164 165 168 171 171 174 176 180 183 183 185 187 188 189 190 191 191 191 193 195 196 196 197 198 198 199 200 200 200 202 204 205 208 208 209 215 219 224 229 232 234 233 238 245 245 248 255 273 285 288 292 287 287 279 277 286 258 237 247 230 218 214 214
183 200 218 247 228 250 253 224 247 262 159 151 157 148 154 161 157 158 142 144 201 210 187 169 160 155 148 150 152 156 161 162 163 165 166 167 169 173 176 178 179 181 183 183 185 187 189 191 192 192 192 193 194 196 197 199 199 200 201 202 203 203 203 204 206 209 211 211 213 219 224 228 232 235 237 235 236 243 245 242 248 266 278 280 284 285 286 279 276 278 251 234 239 232 225 232 230
223 216 228 256 261 263 254 171 192 240 153 142 153 165 168 160 165 167 158 164 209 211 202 178 158 156 156 157 156 159 164 164 168 170 170 171 171 173 176 178 180 183 183 184 186 188 190 191 192 192 193 194 195 197 199 201 202 203 204 205 205 205 206 207 209 213 214 215 216 222 228 230 233 237 238 237 237 243 245 244 247 261 274 277 284 284 280 277 273 269 254 233 232 241 246 248 247
252 245 234 242 239 254 266 225 174 187 158 166 170 178 158 159 187 180 178 190 222 197 184 168 157 156 155 155 158 162 167 168 171 173 174 174 174 173 175 177 181 183 184 187 188 189 191 192 194 194 194 195 196 199 201 203 204 206 206 206 207 207 209 210 212 215 216 218 220 226 230 231 234 236 238 238 238 241 244 247 253 262 274 281 287 285 277 274 269 262 254 243 248 264 269 270 270
232 254 251 248 241 248 264 274 232 177 186 202 166 151 161 181 187 172 197 216 39 123 146 150 152 150 150 155 162 166 168 171 173 174 176 176 176 176 176 180 182 184 185 188 189 190 192 193 195 195 195 196 197 199 202 204 205 206 206 207 209 210 212 213 215 218 219 221 223 228 231 232 234 236 237 239 240 242 244 249 255 263 273 282 286 282 276 272 270 263 256 262 276 290 296 290 283
229 246 258 263 256 256 265 274 271 230 202 188 151 162 186 193 166 171 204 210 100 124 131 141 148 150 156 161 164 168 169 171 173 173 176 176 175 175 178 182 183 186 188 189 190 191 193 194 195 196 195 196 197 199 202 203 205 206 206 208 210 212 215 216 218 220 221 223 226 229 230 231 233 235 238 240 241 242 246 251 257 264 271 280 282 279 277 274 271 268 268 282 292 300 306 298 285
225 238 257 259 260 261 267 272 270 257 212 158 163 187 199 187 139 186 202 159 126 131 133 144 152 159 163 166 167 169 171 172 173 172 175 175 173 175 179 182 184 188 190 190 192 193 194 195 196 197 195 197 198 200 202 204 206 206 208 210 212 214 217 219 221 224 225 226 228 229 230 231 233 236 239 240 243 245 248 253 258 265 270 276 276 274 275 273 272 275 278 288 295 303 311 305 290
233 242 261 256 261 265 263 265 264 268 223 172 181 202 198 175 165 211 187 142 139 132 142 151 158 168 167 170 172 171 174 174 172 170 171 173 175 178 180 183 187 190 191 192 194 195 195 196 198 199 198 199 199 201 204 206 208 209 210 212 214 216 218 220 223 226 228 228 228 229 230 232 235 237 239 241 244 248 253 256 259 264 269 273 272 269 271 271 273 279 280 285 297 306 314 310 300
275 273 283 268 270 272 255 257 261 271 238 189 181 197 180 169 208 207 157 148 147 141 153 159 164 175 171 172 173 173 177 174 173 172 174 178 180 181 182 185 188 189 192 194 195 196 197 199 200 201 202 201 202 204 205 207 210 211 213 214 216 218 220 222 225 228 229 229 229 230 232 233 237 238 239 241 245 250 256 259 262 264 267 272 271 268 270 273 271 273 276 285 297 302 304 302 305
277 270 284 283 301 289 257 249 241 209 222 180 147 133 169 194 213 176 147 153 149 149 159 164 169 175 175 175 173 175 177 174 177 181 183 182 183 184 186 188 188 189 194 195 195 197 199 201 202 203 203 204 205 207 208 210 212 213 215 216 218 219 222 225 227 229 230 231 230 231 234 235 238 240 239 241 244 250 256 260 264 265 267 270 270 269 271 271 266 268 276 286 295 293 293 297 304
295 257 235 282 329 302 268 240 211 191 194 157 140 174 217 210 208 149 151 157 148 154 164 168 172 175 179 178 176 179 179 178 183 186 186 185 185 187 188 190 190 190 193 194 196 198 200 201 202 204 204 206 208 209 210 212 213 215 217 218 220 221 224 227 229 231 231 232 233 234 237 237 239 240 240 241 245 250 255 260 262 263 266 267 267 269 272 271 268 272 279 286 289 282 286 300 305
317 301 221 266 294 274 284 332 160 174 198 163 157 230 231 213 202 162 162 159 155 162 169 172 174 176 181 182 181 182 183 186 187 187 187 187 187 188 189 190 191 192 191 193 197 199 200 201 203 204 205 207 208 209 211 213 215 216 218 220 221 223 226 229 231 232 232 233 235 237 238 239 239 240 239 241 245 250 256 260 263 264 266 267 268 270 272 272 271 276 281 283 282 273 282 300 308
26 290 286 300 214 257 291 259 173 177 213 173 170 230 249 214 192 171 168 164 163 166 172 176 177 179 182 185 185 184 186 188 189 189 189 189 188 189 190 190 191 193 193 194 196 198 200 202 203 204 206 208 208 210 212 214 216 217 219 221 223 225 227 230 232 232 234 235 237 238 237 238 238 239 239 240 245 249 255 260 263 265 266 265 266 270 270 268 271 276 279 276 268 259 272 294 308
9 182 249 266 228 271 305 291 220 196 181 178 197 219 286 217 182 170 172 172 169 168 175 179 180 182 182 186 188 185 184 186 190 192 191 190 191 192 192 192 193 194 194 195 195 197 199 202 203 205 207 208 209 211 212 214 217 219 221 223 225 228 229 232 233 234 236 237 238 238 236 236 237 237 238 240 244 248 254 259 261 263 263 261 262 266 265 264 269 273 270 260 251 246 264 290 298
286 179 227 253 237 251 280 303 298 196 167 195 219 225 244 237 173 169 176 176 172 174 180 182 182 183 182 185 190 190 188 189 194 192 190 191 192 194 194 195 195 195 196 196 196 197 199 201 203 205 207 209 210 210 212 214 217 220 222 224 226 229 232 234 234 235 236 237 237 235 234 234 235 238 240 242 244 247 253 257 258 259 258 257 258 260 261 261 267 267 256 243 240 243 263 276 263
198 208 221 263 250 238 248 271 308 146 209 214 217 231 246 257 173 175 179 177 178 183 183 182 182 183 184 184 189 195 195 198 199 192 190 190 191 193 195 196 195 195 196 197 197 198 199 200 202 205 207 209 210 210 211 213 215 219 222 225 228 230 233 234 234 235 235 234 233 232 233 235 236 239 242 244 246 247 251 255 255 255 254 253 254 256 256 258 262 257 242 236 236 243 262 256 240
171 184 190 226 241 251 243 252 267 230 227 231 215 229 234 208 185 186 181 179 184 186 180 179 184 185 187 189 191 194 201 206 200 192 191 191 191 193 193 195 195 196 197 197 197 198 199 200 201 204 207 208 209 208 209 210 212 215 219 223 226 228 231 233 233 233 232 230 230 231 233 235 237 240 242 245 247 248 250 253 254 253 250 249 249 250 251 258 260 250 241 240 239 244 257 248 244
196 186 201 226 237 262 255 267 279 225 179 242 223 227 232 206 192 191 181 181 186 185 179 182 187 189 191 193 193 196 205 206 194 192 194 193 193 193 193 194 194 196 198 197 197 198 200 200 201 203 205 207 207 207 207 208 209 211 215 218 222 225 227 229 231 230 230 229 230 232 234 235 238 241 244 245 247 248 249 251 251 250 248 246 247 248 251 259 257 248 244 239 238 246 254 247 246
223 223 243 253 239 258 263 264 282 251 165 266 250 232 241 218 198 192 179 183 191 187 184 188 191 192 195 196 197 199 203 193 183 193 196 195 196 194 194 194 194 195 196 197 198 200 201 201 202 203 203 205 208 208 207 208 210 212 214 217 220 223 225 227 228 228 229 231 232 233 235 237 240 244 247 246 245 246 247 248 249 248 247 245 246 247 250 255 252 246 239 232 234 243 247 246 243
209 218 226 251 243 269 280 260 276 253 202 272 262 226 243 223 186 190 192 194 197 193 190 191 190 189 194 197 200 199 193 186 188 194 193 195 196 194 194 195 196 197 197 198 200 201 201 202 203 204 204 205 208 209 209 210 212 214 216 218 220 223 225 227 229 229 230 233 234 234 236 237 241 245 246 243 241 242 244 246 247 248 248 245 244 245 246 249 247 241 234 231 237 240 238 239 236
197 197 204 239 229 226 275 278 302 253 221 261 251 237 267 227 161 194 207 206 208 207 205 201 192 193 198 198 198 194 190 191 193 194 193 194 195 195 196 197 197 198 198 199 201 201 201 203 204 204 205 207 208 210 211 212 213 215 217 220 223 225 227 230 233 234 233 234 234 235 236 238 240 241 240 238 237 239 241 243 246 247 247 245 244 244 244 246 244 234 227 230 237 237 233 235 233
214 200 209 232 215 206 245 284 316 306 288 277 202 332 311 204 181 205 206 204 214 216 213 214 206 204 207 204 203 199 195 195 194 194 194 192 194 196 197 197 196 197 199 201 201 201 202 204 205 206 207 207 208 210 211 210 211 213 214 217 222 224 227 229 230 231 231 232 233 233 235 237 239 238 236 237 237 238 239 241 244 246 246 245 244 243 244 247 244 231 225 229 236 236 233 235 234
241 219 215 217 202 208 238 328 340 342 319 279 166 295 296 246 209 214 192 194 208 207 206 211 208 205 208 208 208 206 202 200 198 198 197 195 195 195 196 197 196 198 201 202 202 202 204 205 206 206 207 207 209 209 208 207 208 209 208 208 211 214 217 221 222 223 225 227 230 232 234 237 238 236 235 237 239 239 240 241 243 245 245 244 243 243 243 245 240 229 227 231 237 239 234 234 236
244 213 193 198 196 203 201 165 105 262 261 274 171 187 270 303 253 227 196 197 206 203 209 212 206 204 206 208 207 205 203 202 202 203 202 202 198 195 195 197 198 200 202 202 202 204 205 206 206 206 207 208 208 208 207 206 206 208 208 208 210 210 214 220 222 222 224 226 228 231 234 236 236 236 236 237 239 241 242 243 243 244 245 245 244 243 241 242 238 229 230 235 239 242 234 232 238
231 160 146 164 184 202 194 170 193 223 245 281 255 169 243 288 258 227 197 202 213 210 215 214 206 209 208 208 209 206 204 200 200 202 201 204 204 201 199 198 200 202 202 200 200 203 205 205 206 206 207 208 208 207 206 206 206 207 209 210 212 213 217 221 221 221 223 225 227 229 232 235 236 237 237 237 239 242 243 244 244 243 244 244 244 243 241 241 237 229 231 234 237 241 236 236 242
210 133 136 157 174 188 169 164 206 219 223 268 248 163 219 266 266 242 185 197 219 217 219 216 208 210 209 208 210 208 208 203 201 203 202 203 204 206 205 202 203 204 202 199 200 203 204 204 205 205 206 208 208 207 206 207 207 208 209 210 212 215 220 222 221 221 222 223 226 228 230 233 235 238 238 239 240 243 244 245 244 243 243 243 243 244 243 241 238 231 230 232 235 239 240 241 247
185 133 141 111 159 162 140 167 198 158 200 249 240 174 209 264 272 241 172 195 218 220 222 219 212 213 211 209 210 209 209 206 205 205 205 206 206 208 208 207 206 205 203 202 202 202 202 203 203 204 206 206 206 206 206 207 208 208 209 210 212 215 217 219 220 221 221 222 224 227 229 231 234 237 239 240 241 243 245 245 244 242 242 243 243 244 242 240 238 232 232 236 238 243 242 243 248
135 129 212 287 322 19 67 144 133 165 239 245 230 187 195 256 251 196 181 198 207 213 222 224 221 221 216 211 210 209 208 206 206 206 206 208 209 210 210 210 210 207 205 205 204 204 202 202 202 204 206 206 206 206 206 207 207 207 209 211 213 214 213 213 214 217 218 219 222 225 228 230 232 236 238 240 241 242 243 244 244 242 242 243 242 243 242 240 239 234 234 238 241 246 245 245 247
133 125 162 225 309 341 342 9 91 220 245 239 219 181 184 238 241 194 213 210 200 205 212 214 217 220 218 214 210 208 208 206 204 205 207 206 207 210 210 212 212 208 206 205 205 205 204 203 203 204 206 206 206 206 205 206 206 207 210 212 214 214 212 210 211 214 215 216 220 223 226 228 229 233 236 238 239 240 241 242 242 240 240 241 241 243 242 241 240 236 236 239 243 246 246 246 246
161 136 135 160 262 275 228 234 182 230 248 236 197 165 194 243 236 199 218 217 205 208 209 209 211 215 217 215 211 209 205 204 203 203 205 203 203 205 206 209 209 205 206 206 204 204 203 204 204 204 206 206 205 206 206 206 206 208 210 211 214 215 213 212 212 214 215 216 219 220 222 224 226 228 231 235 237 238 240 240 240 238 238 240 240 242 242 241 240 238 238 240 243 246 245 246 246
173 164 154 167 190 201 214 232 237 244 254 244 185 166 226 272 248 204 209 213 208 208 213 212 210 213 216 214 210 206 202 202 205 203 202 203 203 203 203 206 205 203 205 205 205 204 203 203 203 204 206 206 205 206 206 206 207 209 210 211 213 214 213 213 214 215 215 217 218 219 222 224 224 226 229 233 236 238 239 240 240 239 239 240 240 242 242 241 241 240 240 242 243 245 245 245 245
179 160 138 169 191 182 194 208 210 243 261 269 175 171 209 239 235 210 202 207 206 205 214 215 216 218 218 218 212 204 202 203 204 204 203 204 203 202 203 205 204 204 203 203 204 204 203 204 204 204 205 205 205 205 206 207 208 209 210 211 213 213 214 214 214 216 216 217 219 220 223 225 226 229 231 233 237 238 239 239 239 238 239 239 240 241 242 241 241 240 240 242 243 245 244 244 244
189 127 128 203 195 159 190 202 176 192 280 276 210 208 221 220 259 250 212 209 204 205 214 215 221 226 222 225 214 201 204 204 203 204 205 206 203 201 203 204 204 205 204 203 203 203 203 204 205 205 206 205 204 205 206 207 208 209 210 211 212 213 214 214 215 216 217 218 220 221 224 226 228 231 232 234 236 238 238 238 237 237 238 239 240 241 241 241 241 240 239 240 242 243 243 243 244
167 149 183 208 148 139 213 242 184 153 262 268 217 247 285 278 279 271 219 213 208 207 214 213 220 225 223 225 213 201 205 203 202 203 203 203 201 201 203 203 203 204 203 204 204 204 204 204 204 205 206 206 205 206 207 208 208 209 210 211 212 212 213 214 215 216 217 218 219 222 225 227 229 231 233 234 235 236 237 237 237 237 238 239 240 241 241 241 241 239 238 239 239 242 244 244 245
135 184 196 129 81 138 187 236 257 226 246 279 252 232 265 254 266 263 191 206 219 212 212 214 220 223 225 226 217 208 207 203 203 204 203 203 200 201 203 203 204 203 203 204 205 205 205 205 205 205 205 206 206 206 207 208 208 208 210 211 211 212 213 214 216 217 217 217 218 221 223 225 228 230 231 232 233 234 235 236 236 237 238 239 240 240 240 241 241 239 238 238 239 242 245 245 245
168 179 173 135 143 194 170 192 226 215 234 279 286 255 239 212 235 236 189 206 222 218 213 214 219 220 222 226 223 216 209 203 202 202 203 202 201 202 202 204 205 204 204 206 206 205 204 205 207 206 207 208 207 206 206 208 208 209 210 211 211 212 213 215 216 216 217 216 218 220 222 224 226 228 228 229 231 232 233 234 234 236 237 238 239 240 240 240 240 239 238 238 239 241 243 244 244
210 130 160 164 170 183 174 184 188 183 225 256 277 272 248 222 206 187 199 213 215 214 212 211 215 216 216 221 223 218 207 202 200 200 201 201 201 203 202 203 204 203 205 206 205 203 203 205 206 207 209 209 208 206 206 207 209 210 211 211 212 213 213 214 215 215 215 216 218 220 222 224 224 224 225 226 228 230 232 233 233 235 235 236 238 239 239 239 239 239 239 239 240 241 242 243 243
203 177 192 192 171 164 176 206 177 159 195 211 228 256 257 248 200 182 199 215 215 213 211 213 216 215 215 218 222 219 209 205 203 200 200 200 202 203 203 204 205 204 205 204 202 202 203 205 205 207 208 208 207 207 207 208 209 209 210 211 212 213 213 214 215 215 216 217 218 219 221 223 223 223 223 223 226 229 231 232 232 233 234 235 236 236 237 237 238 239 240 241 241 240 240 241 241
190 196 202 192 185 138 152 235 242 163 188 185 188 252 262 245 190 188 199 210 219 215 209 217 224 220 217 219 224 222 211 206 205 202 201 200 200 201 202 203 204 203 203 202 201 202 203 204 205 207 207 206 206 206 207 208 208 208 210 211 212 212 212 213 214 215 216 216 218 219 220 221 221 222 222 223 225 227 229 230 230 231 233 234 234 234 235 235 237 238 240 240 240 238 238 238 238